Location: Newark
(43.0000°N, 1.6781°W)
Time: 05:25:49
(UTC+00:00)

XW-2C - Pass Details

Date: 03 December 2022
Orbit: 491 x 506 km, 97.5° (Epoch: 28 January)

Event Time Altitude Azimuth Distance (km) Brightness Sun altitude
Rises 17:04:47 0° 155° (SSE) 2,599 ? -6.1°
Reaches altitude 10° 17:06:54 10° 150° (SSE) 1,715 ? -6.4°
Maximum altitude 17:10:29 52° 74° (ENE) 634 ? -7.0°
Drops below altitude 10° 17:14:05 10° 358° (N) 1,715 ? -7.6°
Sets 17:16:11 0° 353° (N) 2,600 ? -8.0°
